This is the latest recevied weather packets stored in our database for station/object K0SNA. If no packets are shown the sender has not sent any weather packets the latest 10 day(s).
| Time | Temp. | Humidity | Pressure | Rain* | Wind** | Luminosity | Snow |
|---|---|---|---|---|---|---|---|
| 1778193938 | 14.44° C | 27% | 1010.2 hPa | 0 mm | - | 59 W/m² | - |
| 1778193635 | 15° C | 26% | 1010.3 hPa | 0 mm | - | 49 W/m² | - |
| 1778193331 | 15° C | 27% | 1010.4 hPa | 0 mm | - | 89 W/m² | - |
| 1778193028 | 15° C | 25% | 1010.3 hPa | 0 mm | - | 295 W/m² | - |
| 1778192725 | 15° C | 26% | 1010.2 hPa | 0 mm | - | 308 W/m² | - |
| 1778192421 | 14.44° C | 26% | 1010.2 hPa | 0 mm | - | 319 W/m² | - |
| 1778192118 | 14.44° C | 27% | 1010.2 hPa | 0 mm | - | 336 W/m² | - |
| 1778191815 | 15° C | 26% | 1010.3 hPa | 0 mm | - | 348 W/m² | - |
| 1778191512 | 14.44° C | 26% | 1010.3 hPa | 0 mm | - | 360 W/m² | - |
| 1778191210 | 15° C | 26% | 1010.4 hPa | 0 mm | - | 375 W/m² | - |
| 1778190905 | 14.44° C | 26% | 1010.5 hPa | 0 mm | - | 385 W/m² | - |
| 1778190604 | 13.89° C | 26% | 1010.5 hPa | 0 mm | - | 399 W/m² | - |
| 1778190300 | 14.44° C | 25% | 1010.4 hPa | 0 mm | - | 415 W/m² | - |
| 1778189996 | 15° C | 26% | 1010.4 hPa | 0 mm | - | 425 W/m² | - |
| 1778189693 | 14.44° C | 26% | 1010.4 hPa | 0 mm | - | 439 W/m² | - |
| 1778189389 | 13.89° C | 27% | 1010.4 hPa | 0 mm | - | 448 W/m² | - |
| 1778189085 | 15° C | 27% | 1010.6 hPa | 0 mm | - | 465 W/m² | - |
| 1778188783 | 14.44° C | 26% | 1010.6 hPa | 0 mm | - | 476 W/m² | - |
| 1778188478 | 15° C | 26% | 1010.7 hPa | 0 mm | - | 487 W/m² | - |
| 1778188176 | 14.44° C | 26% | 1010.8 hPa | 0 mm | - | 496 W/m² | - |
| 1778187873 | 13.89° C | 26% | 1010.9 hPa | 0 mm | - | 511 W/m² | - |
| 1778187569 | 13.89° C | 28% | 1010.9 hPa | 0 mm | - | 523 W/m² | - |
| 1778187267 | 15° C | 26% | 1010.9 hPa | 0 mm | - | 523 W/m² | - |
| 1778186962 | 14.44° C | 26% | 1010.9 hPa | 0 mm | - | 539 W/m² | - |
| 1778186659 | 13.89° C | 26% | 1011 hPa | 0 mm | - | 550 W/m² | - |
* Rain latest hour (hover to see other rain measurements)
** Current wind speed in m/s (hover to see current wind gust speed)